sat.trackr.live / text

‹ back to catalog

AT&T T-16

NORAD 44333 · 2019-034A

PAYLOAD ACTIVE UNKNOWN

§ Identity

Operator
Country
US
Launch date
2019-06-20
Launch site
FRGUI
Launch vehicle
Mass (kg)
RCS (m²)

Purposes: comms

External: N2YO · Heavens-Above · Gunter

§ Orbital elements

Epoch: 2026-09-19T14:56:15.780768Z

Period
1,436.11 min
Inclination
0.0151°
Eccentricity
0.0000823
Mean motion
1.00270956 rev/d
Perigee alt
35,783.4 km
Apogee alt
35,790.3 km
Semi-major
42,165.0 km
B*
0.0000e+0
RAAN
128.5595°
Arg perigee
293.6656°
Mean anomaly
59.5236°
Rev number
2,658

§ Raw data

AT&T T-161 44333U 19034A   26262.62240487 -.00000119  00000+0  00000+0 0  99952 44333   0.0151 128.5595 0000823 293.6656  59.5236  1.00270956 26582

JSON: /api/v1/satellites/44333 · /tle

For live sub-satellite position, see the globe view (requires WebGL).

§ Visibility from observer

Set your observer location to see the next 7 days of passes ≥ 10°. The values pass through the URL so the page stays shareable.

No JS? Fill the form by hand. The geolocation button needs JavaScript.